Home   Weather   Myrtle Beach   Past weeks

Flag for USA Past Weather in Myrtle Beach, South Carolina, USA — Yesterday and Last 2 Weeks

Now
64 °F

Overcast.


Feels Like: 64 °F
Forecast: 60 / 77 °F
Wind: 6 mph from Northwest

Location: Myrtle Beach Air Force Base

Current Time: Apr 25, 2017 at 8:22:13 pm

Latest Report: Apr 25, 2017 at 6:45 pm


Visibility: 10 mi

Pressure: 29.71 "Hg

Humidity: 83%

Dew Point: 59 °F

Location of Myrtle BeachLocation

Past Weather in Myrtle Beach — Graph

°F

Myrtle Beach Temperature Yesterday

Maximum temperature yesterday: 72 °F (at 6:45 am)
Minimum temperature yesterday: 63 °F (at 9:45 pm)
Average temperature yesterday: 67 °F

High & Low Weather Summary for the Past Weeks

 TemperatureHumidityPressure
High84 °F (Apr 13, 9:45 pm)100% (Apr 12, 5:36 am)30.42 "Hg (Apr 12, 5:36 am)
Low54 °F (Apr 11, 6:45 am)48% (Apr 13, 9:45 pm)29.58 "Hg (Apr 25, 3:56 am)
Average69 °F80%30.12 "Hg
* Reported Apr 10 6:45 pm — Apr 25 6:45 pm, Myrtle Beach, Weather by CustomWeather, © 2017

Note: Actual official high and low records may vary slightly from our data, if they occured in-between our weather recording intervals... More about our weather records

Advertising

Myrtle Beach Weather History for the Previous 24 Hours

Scroll right to see more
 ConditionsComfort  
Time TempWeatherWind HumidityBarometerVisibility
6:45 pm
Tue, Apr 25
64 °FOvercast.6 mph83%29.71 "Hg10 mi
5:45 pm66 °FOvercast.9 mph78%29.71 "Hg10 mi
4:50 pm68 °FPartly sunny.12 mph78%29.68 "Hg10 mi
4:35 pm68 °FPartly sunny.15 mph73%29.68 "Hg10 mi
3:45 pm66 °FPartly sunny.9 mph78%29.69 "Hg10 mi
2:50 pm64 °FOvercast.12 mph78%29.69 "Hg10 mi
1:45 pm64 °FOvercast.12 mph78%29.69 "Hg10 mi
12:45 pm64 °FOvercast.12 mph78%29.68 "Hg10 mi
11:45 am64 °FOvercast.12 mph78%29.68 "Hg10 mi
10:45 am61 °FLow clouds.14 mph88%29.69 "Hg10 mi
9:45 am59 °FLight rain. Fog.10 mph94%29.65 "Hg3 mi
8:51 am61 °FLow clouds.10 mph88%29.65 "Hg7 mi
7:50 am59 °FFog.7 mph94%29.63 "Hg4 mi
6:45 am61 °FMostly cloudy.6 mph94%29.61 "Hg7 mi
5:56 am61 °FFog.9 mph97%29.59 "Hg5 mi
5:14 am61 °FLow clouds.6 mph100%29.59 "Hg10 mi
4:56 am62 °FMostly cloudy.5 mph96%29.58 "Hg10 mi
3:56 am62 °FMostly cloudy.No wind100%29.58 "Hg10 mi
2:56 am63 °FLight rain. Fog.8 mph97%29.58 "Hg1 mi
1:56 am62 °FLight rain. Fog.5 mph100%29.59 "Hg1 mi
1:44 am63 °FLight rain. Fog.6 mph94%29.60 "Hg1 mi
1:32 am63 °FLight rain. Fog.8 mph100%29.60 "Hg0 mi
1:18 am63 °FFog.6 mph100%29.60 "Hg1 mi
12:56 am63 °FPassing clouds.No wind100%29.60 "Hg10 mi
11:56 pm
Mon, Apr 24
64 °FMostly cloudy.3 mph97%29.63 "Hg10 mi
11:37 pm64 °FLow clouds.No wind94%29.63 "Hg10 mi
10:02 pm63 °FPassing clouds.7 mph100%29.63 "Hg10 mi
9:45 pm63 °FPassing clouds.7 mph100%29.63 "Hg10 mi
8:45 pm64 °FPassing clouds.12 mph94%29.64 "Hg10 mi
Weather by CustomWeather, © 2017

See weather overviewHow to use our weather pages